When you browse on this site, cookies collect data to enhance your experience and personalize the content and advertising you see.
Visit our Privacy Policy to learn more. By continuing to use the site, you agree to this use of cookies and data.
  • In Österreich
  • Länderverzeichnis
  • Für 7 Tage
  • Wassertemperatur
  • Wetterkarte
  • News
  • Widgets
  • user-avatar
    Anmelden

    Stündliche Wetter Etschmiadsin

    Heute, 28 Februar, Freitag

    Zeit Temperatur Niederschläge Wind Luftdruck Luftfeuchtigkeit
    00:00 +5°C° 0 mm 1 m/S 687 mmHg 43%
    01:00 +4°C° 0 mm 1 m/S 687 mmHg 44%
    02:00 +4°C° 0 mm 1 m/S 686 mmHg 44%
    03:00 +4°C° 0 mm 1 m/S 685 mmHg 44%
    04:00 +4°C° 0 mm 1 m/S 685 mmHg 45%
    05:00 +3°C° 0 mm 1 m/S 685 mmHg 45%
    06:00 +3°C° 0 mm 1 m/S 685 mmHg 45%
    07:00 +4°C° 0 mm 1 m/S 685 mmHg 43%
    08:00 +6°C° 0 mm 1 m/S 685 mmHg 41%
    09:00 +7°C° 0 mm 1 m/S 685 mmHg 38%
    10:00 +8°C° 0 mm 1 m/S 685 mmHg 37%
    11:00 +9°C° 0 mm 1 m/S 685 mmHg 37%
    12:00 +10°C° 0 mm 1 m/S 685 mmHg 36%
    13:00 +10°C° 0 mm 1 m/S 685 mmHg 35%
    14:00 +11°C° 0 mm 1 m/S 684 mmHg 34%
    15:00 +11°C° 0 mm 1 m/S 684 mmHg 32%
    16:00 +11°C° 0 mm 1 m/S 684 mmHg 35%
    17:00 +10°C° 0 mm 1 m/S 685 mmHg 38%
    18:00 +9°C° 0 mm 1 m/S 685 mmHg 41%
    19:00 +8°C° 0 mm 1 m/S 685 mmHg 43%
    20:00 +7°C° 0 mm 1 m/S 685 mmHg 45%
    21:00 +7°C° 0 mm 1 m/S 685 mmHg 48%
    22:00 +6°C° 0 mm 1 m/S 685 mmHg 49%
    23:00 +6°C° 0 mm 1 m/S 684 mmHg 51%

    Morgen, 29 Februar, Samstag

    Zeit Temperatur Niederschläge Wind Luftdruck Luftfeuchtigkeit
    00:00 +5°C° 0 mm 1 m/S 684 mmHg 53%
    01:00 +5°C° 0 mm 1 m/S 684 mmHg 54%
    02:00 +5°C° 0 mm 1 m/S 683 mmHg 55%
    03:00 +5°C° 0 mm 1 m/S 683 mmHg 56%
    04:00 +5°C° 0 mm 1 m/S 683 mmHg 57%
    05:00 +5°C° 0 mm 1 m/S 683 mmHg 57%
    06:00 +5°C° 0 mm 1 m/S 683 mmHg 58%
    07:00 +6°C° 0 mm 1 m/S 683 mmHg 55%
    08:00 +7°C° 0 mm 1 m/S 683 mmHg 52%
    09:00 +8°C° 0 mm 1 m/S 683 mmHg 50%
    10:00 +9°C° 0 mm 1 m/S 683 mmHg 47%
    11:00 +10°C° 0 mm 1 m/S 682 mmHg 45%
    12:00 +11°C° 0 mm 1 m/S 682 mmHg 42%
    13:00 +12°C° 0 mm 1 m/S 682 mmHg 42%
    14:00 +12°C° 0 mm 2 m/S 681 mmHg 42%
    15:00 +13°C° 0 mm 2 m/S 680 mmHg 42%
    16:00 +12°C° 0 mm 2 m/S 681 mmHg 45%
    17:00 +10°C° 0 mm 2 m/S 681 mmHg 48%
    18:00 +9°C° 0 mm 2 m/S 681 mmHg 51%
    19:00 +9°C° 0.3 mm 2 m/S 681 mmHg 58%
    20:00 +8°C° 0.3 mm 2 m/S 681 mmHg 66%
    21:00 +7°C° 0.3 mm 3 m/S 680 mmHg 74%
    22:00 +7°C° 0.1 mm 2 m/S 680 mmHg 74%
    23:00 +7°C° 0.1 mm 2 m/S 680 mmHg 75%

    übermorgen, 1 März, Sonntag

    Zeit Temperatur Niederschläge Wind Luftdruck Luftfeuchtigkeit
    00:00 +8°C° 0.1 mm 1 m/S 680 mmHg 75%
    01:00 +7°C° 0.3 mm 2 m/S 680 mmHg 77%
    02:00 +6°C° 0.3 mm 2 m/S 680 mmHg 79%
    03:00 +6°C° 0.3 mm 2 m/S 680 mmHg 81%
    04:00 +6°C° 0.1 mm 2 m/S 680 mmHg 83%
    05:00 +6°C° 0.1 mm 1 m/S 681 mmHg 85%
    06:00 +6°C° 0.1 mm 1 m/S 681 mmHg 87%
    07:00 +7°C° 0 mm 1 m/S 681 mmHg 84%
    08:00 +8°C° 0 mm 1 m/S 682 mmHg 80%
    09:00 +8°C° 0 mm 1 m/S 682 mmHg 77%
    10:00 +9°C° 0.1 mm 1 m/S 682 mmHg 75%
    11:00 +10°C° 0.1 mm 1 m/S 682 mmHg 72%
    12:00 +11°C° 0.1 mm 1 m/S 682 mmHg 69%
    13:00 +11°C° 0.1 mm 1 m/S 682 mmHg 65%
    14:00 +10°C° 0.1 mm 2 m/S 681 mmHg 62%
    15:00 +12°C° 0.1 mm 2 m/S 681 mmHg 58%
    16:00 +10°C° 0 mm 2 m/S 681 mmHg 59%
    17:00 +10°C° 0 mm 2 m/S 682 mmHg 60%
    18:00 +9°C° 0 mm 2 m/S 682 mmHg 61%
    19:00 +8°C° 0 mm 3 m/S 682 mmHg 62%
    20:00 +8°C° 0 mm 3 m/S 683 mmHg 62%
    21:00 +7°C° 0 mm 3 m/S 683 mmHg 62%
    22:00 +7°C° 0 mm 3 m/S 684 mmHg 63%
    23:00 +5°C° 0 mm 3 m/S 684 mmHg 63%

    2 März, Montag

    Zeit Temperatur Niederschläge Wind Luftdruck Luftfeuchtigkeit
    00:00 +5°C° 0 mm 3 m/S 684 mmHg 63%
    01:00 +4°C° 0 mm 3 m/S 684 mmHg 63%
    02:00 +4°C° 0 mm 3 m/S 684 mmHg 63%
    03:00 +4°C° 0 mm 3 m/S 684 mmHg 62%
    04:00 +4°C° 0 mm 2 m/S 684 mmHg 63%
    05:00 +4°C° 0 mm 2 m/S 685 mmHg 64%
    06:00 +3°C° 0 mm 2 m/S 685 mmHg 64%
    07:00 +4°C° 0 mm 2 m/S 685 mmHg 61%
    08:00 +5°C° 0 mm 2 m/S 686 mmHg 57%
    09:00 +6°C° 0 mm 2 m/S 686 mmHg 54%
    10:00 +8°C° 0 mm 1 m/S 686 mmHg 52%
    11:00 +9°C° 0 mm 1 m/S 686 mmHg 50%
    12:00 +10°C° 0 mm 1 m/S 686 mmHg 48%
    13:00 +10°C° 0 mm 1 m/S 686 mmHg 47%
    14:00 +11°C° 0 mm 1 m/S 686 mmHg 47%
    15:00 +11°C° 0 mm 1 m/S 686 mmHg 46%
    16:00 +9°C° 0 mm 2 m/S 686 mmHg 50%
    17:00 +9°C° 0 mm 2 m/S 687 mmHg 54%
    18:00 +8°C° 0 mm 2 m/S 687 mmHg 57%
    19:00 +7°C° 0 mm 2 m/S 688 mmHg 61%
    20:00 +7°C° 0 mm 2 m/S 688 mmHg 64%
    21:00 +6°C° 0 mm 2 m/S 689 mmHg 67%
    22:00 +6°C° 0 mm 1 m/S 689 mmHg 68%
    23:00 +6°C° 0 mm 1 m/S 689 mmHg 69%

    3 März, Dienstag

    Zeit Temperatur Niederschläge Wind Luftdruck Luftfeuchtigkeit
    00:00 +5°C° 0 mm 1 m/S 689 mmHg 69%
    01:00 +5°C° 0 mm 1 m/S 689 mmHg 70%
    02:00 +5°C° 0 mm 1 m/S 689 mmHg 70%
    03:00 +4°C° 0 mm 1 m/S 689 mmHg 70%
    04:00 +4°C° 0 mm 1 m/S 689 mmHg 71%
    05:00 +4°C° 0 mm 1 m/S 690 mmHg 72%
    06:00 +4°C° 0 mm 1 m/S 690 mmHg 72%
    07:00 +5°C° 0 mm 1 m/S 690 mmHg 68%
    08:00 +6°C° 0 mm 1 m/S 691 mmHg 63%
    09:00 +7°C° 0 mm 1 m/S 691 mmHg 58%
    10:00 +8°C° 0 mm 1 m/S 691 mmHg 56%
    11:00 +9°C° 0 mm 1 m/S 691 mmHg 54%
    12:00 +10°C° 0 mm 1 m/S 690 mmHg 51%
    13:00 +11°C° 0 mm 1 m/S 690 mmHg 49%
    14:00 +11°C° 0 mm 1 m/S 690 mmHg 48%
    15:00 +12°C° 0 mm 1 m/S 690 mmHg 46%
    16:00 +11°C° 0 mm 1 m/S 690 mmHg 48%
    17:00 +11°C° 0 mm 1 m/S 690 mmHg 51%
    18:00 +10°C° 0 mm 1 m/S 690 mmHg 53%
    19:00 +9°C° 0 mm 1 m/S 691 mmHg 55%
    20:00 +9°C° 0 mm 1 m/S 691 mmHg 57%
    21:00 +8°C° 0 mm 1 m/S 691 mmHg 59%
    22:00 +7°C° 0 mm 1 m/S 691 mmHg 59%
    23:00 +6°C° 0 mm 2 m/S 691 mmHg 58%

    4 März, Mittwoch

    Zeit Temperatur Niederschläge Wind Luftdruck Luftfeuchtigkeit
    00:00 +5°C° 0 mm 2 m/S 691 mmHg 58%
    01:00 +6°C° 0 mm 1 m/S 691 mmHg 58%
    02:00 +6°C° 0 mm 1 m/S 691 mmHg 57%
    03:00 +5°C° 0 mm 1 m/S 691 mmHg 57%
    04:00 +5°C° 0 mm 1 m/S 691 mmHg 57%
    05:00 +4°C° 0 mm 1 m/S 691 mmHg 57%
    06:00 +4°C° 0 mm 1 m/S 691 mmHg 57%
    07:00 +6°C° 0 mm 1 m/S 691 mmHg 52%
    08:00 +7°C° 0 mm 1 m/S 692 mmHg 48%
    09:00 +8°C° 0 mm 1 m/S 692 mmHg 44%
    10:00 +9°C° 0 mm 1 m/S 692 mmHg 43%
    11:00 +11°C° 0 mm 1 m/S 691 mmHg 42%
    12:00 +12°C° 0 mm 1 m/S 691 mmHg 41%
    13:00 +12°C° 0 mm 1 m/S 691 mmHg 40%
    14:00 +13°C° 0 mm 1 m/S 690 mmHg 38%
    15:00 +13°C° 0 mm 0 m/S 690 mmHg 37%
    16:00 +12°C° 0 mm 0 m/S 690 mmHg 39%
    17:00 +11°C° 0 mm 0 m/S 690 mmHg 42%
    18:00 +10°C° 0 mm 0 m/S 690 mmHg 44%
    19:00 +10°C° 0 mm 1 m/S 690 mmHg 45%
    20:00 +10°C° 0 mm 1 m/S 690 mmHg 45%
    21:00 +9°C° 0 mm 1 m/S 690 mmHg 46%
    22:00 +9°C° 0 mm 1 m/S 690 mmHg 46%
    23:00 +8°C° 0 mm 1 m/S 690 mmHg 47%
    Mehr zeigen